Weather History for Novato, CA

Change the Weather History Date:

Sunday, August 4, 2013

  Actual Average (KAPC) Record (KAPC)
Temperature  
Mean Temperature 64 °F 65 °F  
Max Temperature 77 °F 78 °F 95 °F (1998)
Min Temperature 50 °F 52 °F 46 °F (1918)
Degree Days  
Heating Degree Days 2    
Month to date heating degree days  
Since 1 June heating degree days  
Since 1 July heating degree days  
Cooling Degree Days 0    
Month to date cooling degree days  
Year to date cooling degree days  
Since 1 June cooling degree days  
Growing Degree Days 14 (Base 50)    
Moisture  
Dew Point 54 °F    
Average Humidity 84    
Maximum Humidity 100    
Minimum Humidity 44    
Precipitation  
Precipitation 0.04 in - 0.00 in (2014)
Month to date precipitation  
Year to date precipitation  
Since 1 July precipitation  
Sea Level Pressure  
Sea Level Pressure 29.99 in    
Wind  
Wind Speed 4 mph (SSW)    
Max Wind Speed 13 mph    
Max Gust Speed 18 mph    
Visibility 10 miles    
Events Rain    
T = Trace of Precipitation, MM = Missing Value Source: NWS Daily Summary

Daily Weather History Graph

Daily Weather History Graph

Search for Another Location

Airport:

Trip Planner

Search our weather history database for the weather conditions in past years. The results will help you decide how hot, cold, wet, or windy it might be!

Date:

Astronomy

Aug. 04, 2013 Rise Set
Actual Time 6:15 AM PDT 8:16 PM PDT
Civil Twilight 5:46 AM PDT 8:45 PM PDT
Nautical Twilight 5:11 AM PDT 9:20 PM PDT
Astronomical Twilight 4:33 AM PDT 9:58 PM PDT
Moon 4:21 AM PDT (8/4) 6:42 PM PDT (8/4)
Length of Visible Light 14h 58m
Length of Day
14h 00m
Waning Crescent, 4% of the Moon is Illuminated
Aug 4
Waning Crescent
Aug 6
New
Aug 14
First Quarter
Aug 20
Full
Aug 28
Last Quarter

Hourly Weather History & Observations

Time (PDT) Temp. Dew Point Humidity Pressure Visibility Wind Dir Wind Speed Gust Speed Precip Events Conditions
12:15 AM 53.6 °F 53.6 °F 100% 29.98 in 10.0 mi ESE 4.6 mph - N/A   Clear
12:35 AM 51.8 °F 51.8 °F 100% 29.98 in 10.0 mi East 3.5 mph - N/A   Clear
12:55 AM 50.0 °F 50.0 °F 100% 29.98 in 10.0 mi Calm Calm - N/A   Scattered Clouds
1:15 AM 51.8 °F 51.8 °F 100% 29.98 in 10.0 mi Calm Calm - N/A   Mostly Cloudy
1:35 AM 53.6 °F 53.6 °F 100% 29.98 in 10.0 mi Calm Calm - N/A   Overcast
1:55 AM 53.6 °F 53.6 °F 100% 29.98 in 10.0 mi Calm Calm - N/A   Overcast
2:15 AM 53.6 °F 53.6 °F 100% 29.98 in 10.0 mi SW 3.5 mph - N/A   Overcast
2:35 AM 53.6 °F 53.6 °F 100% 29.98 in 10.0 mi Calm Calm - N/A   Overcast
2:55 AM 53.6 °F 53.6 °F 100% 29.98 in 10.0 mi SW 5.8 mph - N/A   Overcast
3:15 AM 53.6 °F 53.6 °F 100% 29.98 in 10.0 mi SW 4.6 mph - N/A   Overcast
3:35 AM 53.6 °F 53.6 °F 100% 29.98 in 10.0 mi Calm Calm - N/A   Overcast
3:55 AM 53.6 °F 53.6 °F 100% 29.98 in 10.0 mi WSW 3.5 mph - N/A   Overcast
4:15 AM 53.6 °F 53.6 °F 100% 29.98 in 10.0 mi WSW 6.9 mph - N/A   Overcast
4:35 AM 53.6 °F 53.6 °F 100% 29.99 in 10.0 mi WSW 5.8 mph - N/A   Overcast
4:55 AM 53.6 °F 53.6 °F 100% 29.99 in 10.0 mi West 5.8 mph - N/A   Overcast
5:15 AM 53.6 °F 53.6 °F 100% 29.99 in 10.0 mi SW 6.9 mph - N/A   Overcast
5:35 AM 53.6 °F 53.6 °F 100% 29.99 in 10.0 mi WSW 8.1 mph - N/A   Overcast
5:55 AM 53.6 °F 53.6 °F 100% 30.00 in 10.0 mi West 4.6 mph - N/A   Overcast
6:15 AM 53.6 °F 53.6 °F 100% 30.00 in 10.0 mi WSW 8.1 mph - N/A   Overcast
6:35 AM 53.6 °F 53.6 °F 100% 30.00 in 10.0 mi WSW 5.8 mph - N/A   Overcast
6:55 AM 53.6 °F 53.6 °F 100% 30.01 in 10.0 mi WSW 6.9 mph - N/A   Overcast
7:15 AM 53.6 °F 53.6 °F 100% 30.01 in 10.0 mi Calm Calm - N/A   Overcast
7:35 AM 53.6 °F 53.6 °F 100% 30.01 in 10.0 mi SW 5.8 mph - N/A   Overcast
7:55 AM 53.6 °F 53.6 °F 100% 30.01 in 10.0 mi WNW 3.5 mph - N/A   Overcast
8:15 AM 53.6 °F 53.6 °F 100% 30.01 in 10.0 mi Calm Calm - N/A   Overcast
8:35 AM 53.6 °F 53.6 °F 100% 30.02 in 10.0 mi Calm Calm - N/A   Overcast
8:55 AM 55.4 °F 53.6 °F 94% 30.02 in 10.0 mi Calm Calm - N/A   Overcast
9:15 AM 55.4 °F 53.6 °F 94% 30.02 in 10.0 mi Calm Calm - N/A   Overcast
9:35 AM 55.4 °F 53.6 °F 94% 30.02 in 10.0 mi Calm Calm - N/A   Overcast
9:55 AM 57.2 °F 53.6 °F 88% 30.02 in 10.0 mi East 3.5 mph - N/A   Overcast
10:15 AM 57.2 °F 53.6 °F 88% 30.02 in 10.0 mi East 4.6 mph - N/A   Overcast
10:35 AM 59.0 °F 53.6 °F 82% 30.02 in 10.0 mi ENE 4.6 mph - N/A   Mostly Cloudy
10:55 AM 62.6 °F 53.6 °F 72% 30.02 in 10.0 mi NNE 3.5 mph - N/A   Partly Cloudy
11:15 AM 62.6 °F 53.6 °F 72% 30.02 in 10.0 mi ENE 5.8 mph - N/A   Clear
11:35 AM 64.4 °F 53.6 °F 68% 30.01 in 10.0 mi ENE 3.5 mph - N/A   Clear
11:55 AM 66.2 °F 53.6 °F 64% 30.00 in 10.0 mi ESE 5.8 mph - N/A   Clear
12:15 PM 66.2 °F 53.6 °F 64% 30.00 in 10.0 mi SSE 4.6 mph - N/A   Clear
12:35 PM 68.0 °F 53.6 °F 60% 30.00 in 10.0 mi ESE 10.4 mph - N/A   Clear
12:55 PM 68.0 °F 55.4 °F 64% 30.00 in - SE 8.1 mph - N/A   Clear
1:15 PM 68.0 °F 55.4 °F 64% 29.99 in - ESE 5.8 mph - N/A   Clear
1:35 PM 69.8 °F 55.4 °F 60% 29.99 in - ESE 4.6 mph - N/A   Clear
1:55 PM 71.6 °F 55.4 °F 57% 29.98 in - ESE 10.4 mph - N/A   Clear
2:15 PM 71.6 °F 55.4 °F 57% 29.98 in - SE 6.9 mph - N/A   Clear
2:35 PM 71.6 °F 55.4 °F 57% 29.97 in - SE 5.8 mph - N/A   Clear
2:55 PM 73.4 °F 55.4 °F 53% 29.97 in - SSE 3.5 mph - N/A   Clear
3:15 PM 75.2 °F 55.4 °F 50% 29.96 in - East 5.8 mph - N/A   Clear
3:35 PM 75.2 °F 53.6 °F 47% 29.95 in - North 10.4 mph - N/A   Clear
3:55 PM 77.0 °F 53.6 °F 44% 29.95 in - North 12.7 mph - N/A   Clear
4:15 PM 75.2 °F 53.6 °F 47% 29.95 in - NNW 11.5 mph - N/A   Clear
4:35 PM 75.2 °F 53.6 °F 47% 29.95 in - North 11.5 mph - N/A   Clear
4:55 PM 75.2 °F 53.6 °F 47% 29.95 in - North 4.6 mph - N/A   Clear
5:15 PM 71.6 °F 53.6 °F 53% 29.95 in - West 8.1 mph - N/A   Clear
5:35 PM 71.6 °F 53.6 °F 53% 29.95 in - WSW 12.7 mph 17.3 mph N/A   Clear
5:55 PM 68.0 °F 53.6 °F 60% 29.96 in - SW 12.7 mph - N/A   Clear
6:15 PM 66.2 °F 53.6 °F 64% 29.96 in 10.0 mi WSW 11.5 mph 18.4 mph N/A   Clear
6:35 PM 66.2 °F 53.6 °F 64% 29.96 in 10.0 mi North 8.1 mph - N/A   Clear
6:55 PM 64.4 °F 53.6 °F 68% 29.97 in 10.0 mi ENE 4.6 mph - N/A   Clear
7:15 PM 62.6 °F 53.6 °F 72% 29.97 in 10.0 mi Calm Calm - N/A   Clear
7:35 PM 59.0 °F 53.6 °F 82% 29.98 in 10.0 mi North 3.5 mph - N/A   Clear
7:55 PM 57.2 °F 53.6 °F 88% 29.98 in 10.0 mi North 8.1 mph - N/A   Clear
8:15 PM 57.2 °F 53.6 °F 88% 29.99 in 10.0 mi NNW 8.1 mph - N/A   Clear
8:35 PM 55.4 °F 53.6 °F 94% 30.00 in 10.0 mi NNW 5.8 mph - N/A   Clear
8:55 PM 55.4 °F 53.6 °F 94% 30.00 in 10.0 mi North 5.8 mph - N/A   Clear
9:15 PM 55.4 °F 55.4 °F 100% 30.01 in 10.0 mi East 4.6 mph - N/A   Partly Cloudy
9:35 PM 55.4 °F 55.4 °F 100% 30.01 in 10.0 mi ESE 3.5 mph - N/A   Mostly Cloudy
9:55 PM 55.4 °F 55.4 °F 100% 30.01 in 10.0 mi Calm Calm - N/A   Mostly Cloudy
10:15 PM 55.4 °F 55.4 °F 100% 30.02 in 10.0 mi Calm Calm - N/A   Overcast
10:35 PM 55.4 °F 55.4 °F 100% 30.02 in 10.0 mi Calm Calm - N/A   Overcast
10:55 PM 55.4 °F 55.4 °F 100% 30.02 in 10.0 mi SW 5.8 mph - N/A   Overcast
11:15 PM 55.4 °F 55.4 °F 100% 30.02 in 10.0 mi Calm Calm - N/A   Overcast
11:35 PM 55.4 °F 55.4 °F 100% 30.02 in 10.0 mi Calm Calm - N/A   Overcast
11:55 PM 55.4 °F 55.4 °F 100% 30.02 in 10.0 mi West 4.6 mph - 0.04 in Rain Light Rain